KOREASAT 7

Last updated on Sun Apr 12 2026 00:02:54 GMT+0000 (Coordinated Universal Time)

1 42691U 17023A 26101.47232177 -.00000360 00000+0 00000+0 0 9996 2 42691 0.0103 33.1102 0001076 5.7466 86.7609 1.00272943 32706
UTC large
Height (km)
Speed (km/s)
/
Latitude / Longitude
Inclination (degrees)
Orbital Period (minutes)
Azimuth
Elevation
Range (km)
Doppler Factor

Next 0 passes for location: London (51.5072 / 0.1276)

Sorry there are no passes over London.
KOREASAT 7